Weather Roundup
Issued by NWS Springfield, MO

Home | Current Version | Previous Version | Text Only | Print | Product List | Glossary On
Versions: 1 2 3 4 5 6 7 8 9 10 11 12 13 14 15 16 17 18 19 20 21 22 23 24 25 26 27 28 29 30 31 32 33 34 35 36 37 38 39 40 41 42 43 44 45 46 47 48 49 50
000
NZUS99 KSGF 212257
HRRSGF

HOURLY WEATHER
NATIONAL WEATHER SERVICE SPRINGFIELD MO
600 PM CDT SUN MAY 21 2017

......SGF CWA......

CITY           SKY/WX    TMP DP  RH WIND       PRES   REMARKS
SPRINGFIELD    SUNNY     69  44  40 NW8       30.13R
WEST PLAINS    SUNNY     70  43  37 W8        30.10F
ROLLA          SUNNY     66  44  45 W14       30.08F
BRANSON        MOSUNNY   68  45  42 W6        30.14S

......SURROUNDING SGF CWA......

CITY           SKY/WX    TMP DP  RH WIND       PRES   REMARKS
CHANUTE        SUNNY     74  47  38 NW9       30.12R
PARSONS        SUNNY     75  50  41 SW3       30.13R
COFFEYVILLE    PTSUNNY   74  54  49 S5        30.12R
EMPORIA        SUNNY     72  47  40 W7        30.10S
HARRISON AR    SUNNY     70  45  40 NW9       30.14R

......KANSAS AND MISSOURI......

CITY           SKY/WX    TMP DP  RH WIND       PRES   REMARKS
KANSAS CTY INT SUNNY     69  42  37 NW12G20   30.09S
SEDALIA        SUNNY     69  45  41 NW9       30.10F
ST JOSEPH      SUNNY     69  41  36 NW13      30.08S
ST LOUIS       MOSUNNY   70  46  42 NW13      30.06F
WICHITA        CLOUDY    71  49  45 W5        30.11S
TOPEKA         SUNNY     72  44  36 NW9       30.08F
OLATHE         SUNNY     68  43  40 NW9G16    30.09F

......TENNESSEE......

CITY           SKY/WX    TMP DP  RH WIND       PRES   REMARKS
MEMPHIS        NOT AVBL
NASHVILLE      PTSUNNY   80  66  62 SW8       30.00F

......ARKANSAS.......

CITY           SKY/WX    TMP DP  RH WIND       PRES   REMARKS
FAYETTEVILLE   SUNNY     70  47  43 NW9       30.15R
FT SMITH       SUNNY     76  43  30 NW8       30.12R
LITTLE ROCK    MOSUNNY   77  53  43 N12       30.10R

......OKLAHOMA.......

CITY           SKY/WX    TMP DP  RH WIND       PRES   REMARKS
TULSA          PTSUNNY   74  48  39 CALM      30.13F
PONCA CITY     MOSUNNY   76  45  33 CALM      30.12S
MCALESTER      CLOUDY    73  49  42 N10       30.13F
OKLAHOMA CITY  CLOUDY    74  48  39 E9        30.12F

......IOWA............

CITY           SKY/WX    TMP DP  RH WIND       PRES   REMARKS
DES MOINES     NOT AVBL
QUAD CITIES    CLOUDY    54  40  59 W20G25    30.03S

......ILLINOIS........

CITY           SKY/WX    TMP DP  RH WIND       PRES   REMARKS
QUINCY         NOT AVBL
CHICAGO        LGT RAIN  53  44  71 W18G26    29.98R




USA.gov is the U.S. government's official web portal to all federal, state and local government web resources and services.